Погода в Хайыракане

Россия / Республика Тыва     51°33′50″N   93°08′04″E
темп.,
°C
ветер,
м/с
пор.,
м/с
влажн.,
%
обл.,
%
осадки,
мм/ч
давл.,
гПа
погр.,
м
3 марта, ср
ср301:00−12в1195100 0.0 101721
04:00−11св0197100 0.3 101621
07:00−11юз1295100 0.6 101721
10:00−10с1194100 0.1 101662
13:00−7зсз1190100 0.1 1015211
16:00−6ссз1190100 0.0 1016217
19:00−10ю119399 0.0 101821
22:00−11юз128962 0.0 102221
4 марта, чт
чт401:00−11юз119558 0.1 102421
04:00−11всв0193100 0.0 102621
07:00−12всв1192100 0.1 102921
10:00−10св2292100 0.3 1029141
13:00−8св3390100 0.4 1029275
16:00−8всв238885 0.1 1028264
19:00−12в228875 0.1 103021
22:00−14вюв128312 0.0 103121
5 марта, пт
пт501:00−16в11827 0.0 103120
04:00−17в128430 0.0 103120
07:00−19с009132 0.0 103120
10:00−15ссз119175 0.0 102992
13:00−12св349388 0.0 1026278
16:00−11з228998 0.1 1025253
19:00−13с119799 0.3 102922
22:00−16ссз119894 0.0 103120
6 марта, сб
сб601:00−17всв119782 0.1 103320
04:00−18всв019767 0.0 103320
07:00−19з009773 0.0 103420
10:00−15зсз119699 0.0 103297
13:00−12с119399 0.0 1030182
16:00−10св1290100 0.0 1027190
19:00−14всв1195100 0.0 102820
22:00−16з119728 0.0 102820
7 марта, вс
вс701:00−17з119762 0.0 102720
04:00−18з019799 0.0 102720
07:00−18зюз009799 0.0 102820
10:00−14с119584 0.0 102778
13:00−11ссв229092 0.0 1026217
16:00−9ссв118998 0.0 1025187
19:00−14св009599 0.0 102621
22:00−16зсз009625 0.0 102820